Wind_Speed
33 33 33 33 34 34 34 35 36 37 39 40 40 40 41 42 43 43 43 42 42 43 43 44 44 44 44 44 45 47 47 47 46 46 47 48 48 48 48 48 49 49 49
33 33 33 33 34 35 36 36 37 37 38 39 41 42 42 42 42 43 43 43 42 42 42 42 43 43 45 45 45 47 48 48 47 47 48 48 49 49 49 50 50 50 49
32 33 33 34 35 35 36 37 38 39 39 40 40 41 42 43 43 43 44 44 44 43 42 42 42 42 43 44 45 46 46 47 48 48 48 49 49 50 50 50 50 50 49
32 33 33 34 35 36 36 37 38 39 40 40 40 40 41 41 42 43 44 45 44 42 42 42 43 44 45 46 46 46 46 47 47 48 48 49 49 50 50 50 50 50 50
32 33 34 34 35 35 36 37 38 38 39 39 40 41 41 42 42 43 44 45 44 44 44 44 45 45 46 47 47 47 47 47 47 48 48 49 49 49 50 50 50 51 51
31 32 33 34 34 35 36 37 37 38 39 40 41 41 42 43 43 44 44 44 45 45 45 46 45 45 46 47 47 47 48 49 49 50 50 51 51 50 50 50 50 50 50
31 31 32 33 34 34 35 36 37 38 40 41 41 42 43 43 43 43 43 43 44 45 46 46 46 46 45 46 46 47 48 49 51 51 51 51 50 50 50 50 50 50 49
32 32 32 33 34 35 35 36 37 38 39 40 41 42 43 43 43 43 43 43 43 44 45 46 46 47 47 46 46 47 47 49 50 51 50 50 50 50 50 49 49 48 48
31 31 32 33 33 34 34 35 36 36 37 38 39 40 41 41 42 42 43 43 44 45 45 46 46 46 47 47 47 47 48 49 49 50 50 50 49 48 48 48 48 47 47
31 31 31 32 32 33 33 34 35 36 37 37 38 39 39 40 40 41 42 43 44 44 45 45 46 46 47 47 48 48 49 49 50 50 49 48 47 47 47 48 48 47 47
30 31 31 31 32 32 33 34 35 36 37 37 38 38 39 39 40 40 40 41 42 43 44 44 45 46 47 48 48 48 49 49 49 49 48 47 47 46 46 47 47 47 47
31 31 32 32 32 33 33 34 35 36 36 37 37 37 37 38 38 38 39 40 41 42 43 44 45 47 48 48 48 48 48 47 47 47 46 45 45 45 45 46 45 45 46
31 31 32 32 33 33 33 34 35 35 36 36 37 37 37 38 38 39 39 40 41 42 43 44 45 46 46 47 47 47 46 46 46 45 45 44 44 44 44 44 44 44 45
31 31 32 32 33 33 34 34 34 35 35 36 36 37 37 38 38 39 39 40 41 42 43 44 44 45 45 45 45 45 45 44 44 43 43 43 43 43 43 44 43 44 44
30 30 31 31 32 32 32 32 33 34 35 36 37 37 37 37 38 39 40 41 41 42 43 43 44 44 44 44 44 43 43 43 43 42 42 42 42 42 42 42 42 42 41
30 31 31 30 31 31 32 32 33 34 34 35 36 36 37 38 39 40 41 41 42 42 43 43 43 44 44 44 43 43 42 41 41 41 41 41 40 41 40 40 39 39 38
29 30 31 30 31 31 32 32 33 33 34 34 34 35 36 37 38 39 39 40 41 42 42 42 43 43 43 43 42 42 41 41 40 40 40 39 39 38 37 36 36 36 35
29 30 30 30 30 31 31 32 32 32 33 33 33 34 35 35 36 37 38 39 40 41 41 41 41 41 41 41 40 40 40 39 38 38 38 37 36 35 35 35 34 33 33
29 29 29 29 29 30 30 31 31 31 32 32 32 33 34 35 36 37 38 39 39 39 39 39 39 39 38 38 38 37 36 36 36 35 35 35 34 33 33 33 32 32 32
27 27 28 28 28 29 30 30 31 31 31 32 32 32 33 34 35 36 36 37 37 37 37 38 37 37 37 36 35 35 34 33 33 33 32 32 32 32 31 31 31 31 31
25 26 26 26 27 28 29 29 30 30 30 30 31 32 32 33 33 34 35 35 35 36 35 35 35 35 35 34 33 32 32 31 31 31 31 30 30 30 29 29 29 29 29
25 25 25 25 26 27 27 28 28 28 29 30 30 30 31 32 32 33 33 34 34 34 34 33 33 33 33 32 31 31 30 29 29 29 28 28 27 27 27 27 27 27 27
24 24 25 25 25 26 26 27 27 28 29 29 29 30 31 31 32 32 33 33 33 33 33 33 32 31 31 30 29 28 28 27 27 27 27 27 26 26 26 26 25 24 24
24 24 25 25 25 26 26 27 27 28 28 29 29 30 31 32 32 32 32 32 32 32 32 31 30 29 29 28 27 26 26 26 25 25 25 25 25 24 23 23 22 22 21
24 24 24 25 25 26 26 27 27 27 27 28 29 30 31 31 32 32 32 31 30 30 29 28 27 27 26 25 25 25 25 24 23 23 22 22 22 21 21 21 20 19 19
24 24 24 25 25 26 26 26 26 27 27 28 29 30 30 31 30 30 29 28 27 27 26 25 24 24 24 23 23 24 23 22 22 21 21 21 20 20 19 19 19 19 20
Wind_Direction
252 252 252 253 253 254 255 255 256 258 260 260 260 261 261 261 261 262 265 266 268 270 270 270 270 272 273 273 274 274 274 274 274 274 274 274 275 276 276 276 276 275 276
252 253 254 255 255 255 255 257 258 259 260 261 262 262 262 262 262 264 265 265 269 270 270 271 273 274 273 274 274 275 275 275 275 275 275 275 275 275 275 276 276 276 275
254 253 254 256 257 257 257 257 258 260 261 262 263 263 263 263 262 263 265 266 268 270 270 271 273 273 274 275 275 275 276 275 275 276 276 275 275 276 275 275 275 275 275
255 255 256 257 258 258 258 258 258 260 261 262 263 263 264 264 264 265 266 267 268 269 270 272 273 273 274 275 275 276 276 276 276 276 277 276 277 277 276 275 275 275 275
257 257 258 260 260 260 259 259 259 260 261 263 263 264 264 265 266 267 267 267 267 269 271 272 274 274 274 275 275 275 276 277 277 278 279 278 277 277 277 276 276 275 275
259 259 260 261 262 263 262 262 262 262 262 263 264 265 266 266 267 268 268 268 268 269 270 272 274 275 276 276 276 276 277 279 280 280 280 280 279 278 278 278 277 277 275
261 262 262 262 264 264 264 263 264 264 264 264 265 266 266 267 267 267 267 268 270 271 272 273 274 275 276 277 278 278 278 280 281 281 281 282 281 280 279 279 278 277 275
263 264 263 263 265 265 265 264 264 265 265 265 266 266 267 267 268 268 268 269 270 271 273 274 275 275 276 277 278 278 279 280 282 282 282 281 281 280 280 279 278 277 275
264 264 265 264 265 265 265 265 265 266 267 267 268 268 268 269 269 268 269 271 271 272 274 275 276 276 277 278 278 279 280 281 282 283 282 281 280 280 280 279 278 278 277
264 265 267 267 266 266 266 267 267 268 269 269 269 269 269 269 269 269 269 271 272 272 274 275 277 278 278 279 280 280 281 281 282 282 281 280 279 279 279 279 279 279 278
265 267 267 268 268 268 268 269 270 269 269 270 271 271 271 270 270 270 271 272 273 273 274 276 278 279 279 280 281 282 283 282 282 281 280 279 278 279 279 279 280 279 280
265 267 267 269 270 270 271 271 272 272 271 272 272 273 273 273 272 271 272 273 274 275 276 277 279 280 280 281 282 283 283 282 281 280 279 278 278 278 279 280 280 280 280
267 268 269 270 271 273 273 273 274 274 274 275 274 273 274 274 274 273 274 275 276 277 278 279 280 282 282 282 283 283 282 282 281 280 279 278 278 279 279 280 279 279 280
269 269 270 271 272 273 274 275 275 276 276 276 275 274 274 274 275 275 276 276 278 280 280 281 282 283 283 283 283 283 283 283 282 281 279 278 278 279 279 280 279 279 280
269 269 270 271 272 274 275 276 277 277 277 276 275 276 276 276 277 278 278 278 280 281 282 281 282 283 283 283 283 283 283 282 281 280 280 279 279 280 280 280 279 279 279
270 270 271 272 273 274 276 277 278 278 278 277 277 277 278 278 279 280 281 281 282 283 283 283 283 283 283 283 282 283 282 282 281 281 280 280 280 281 281 281 279 279 279
272 271 271 272 274 274 276 277 279 280 280 280 279 278 279 281 280 280 282 283 284 285 285 285 285 284 284 284 283 282 282 281 281 282 281 281 280 280 279 279 279 279 279
272 272 272 273 275 275 276 278 279 280 280 280 280 280 281 282 282 283 285 286 286 286 286 285 285 285 285 285 284 283 282 281 281 280 280 280 281 280 280 279 278 278 278
273 273 274 274 274 276 277 278 279 280 280 281 281 282 283 284 284 286 287 287 287 287 286 285 285 286 287 286 285 284 283 281 280 279 279 279 279 279 279 279 278 277 277
275 276 276 275 275 277 278 279 279 280 281 281 282 283 284 286 287 288 289 288 288 288 287 286 286 286 287 287 287 285 283 281 280 279 279 277 276 276 277 277 276 277 277
279 279 278 278 279 279 280 281 281 282 282 282 283 284 285 287 288 289 289 288 289 289 289 288 287 287 286 286 286 285 283 280 279 278 277 276 275 274 274 275 275 276 277
280 279 278 280 281 281 282 283 284 283 284 284 284 285 286 288 290 290 289 289 290 290 290 289 288 288 287 285 284 284 283 280 278 277 276 275 275 274 274 275 275 275 275
279 279 279 280 282 283 283 284 284 285 286 286 286 287 290 291 293 292 291 290 290 291 291 290 290 288 286 285 284 284 283 280 278 276 275 274 275 275 275 276 276 276 276
279 279 279 280 282 283 284 285 286 287 287 288 288 290 292 294 295 294 293 292 291 291 291 291 290 288 286 286 285 283 283 281 278 275 275 275 275 274 275 275 275 275 274
279 280 280 282 283 285 286 287 288 289 290 290 291 293 294 296 296 295 294 293 292 291 291 290 289 287 287 286 285 284 285 283 279 277 276 276 276 275 274 274 273 273 272
280 280 281 282 284 286 287 288 290 291 291 292 293 295 296 297 297 296 295 294 293 292 292 291 289 288 288 287 286 285 284 281 279 278 276 275 275 275 274 273 272 271 271
Height
5645 5647 5649 5651 5652 5654 5655 5657 5658 5660 5661 5662 5662 5663 5663 5664 5664 5665 5665 5665 5664 5664 5663 5663 5663 5662 5662 5661 5660 5659 5658 5658 5657 5657 5654 5652 5650 5648 5646 5645 5643 5641 5639
5637 5639 5640 5642 5643 5645 5646 5647 5648 5650 5650 5651 5652 5652 5652 5653 5654 5654 5654 5654 5653 5652 5652 5651 5651 5650 5650 5649 5647 5646 5645 5644 5643 5643 5641 5639 5637 5635 5633 5631 5629 5627 5625
5628 5630 5631 5633 5634 5635 5636 5637 5638 5639 5640 5641 5641 5641 5642 5642 5642 5642 5642 5642 5642 5641 5641 5640 5640 5639 5638 5637 5635 5634 5632 5631 5629 5628 5627 5625 5623 5621 5619 5617 5615 5613 5611
5619 5621 5622 5623 5624 5625 5626 5627 5628 5629 5630 5630 5630 5630 5631 5631 5631 5631 5631 5631 5630 5630 5629 5628 5628 5627 5626 5625 5623 5621 5619 5618 5616 5614 5613 5611 5609 5606 5605 5603 5602 5599 5597
5610 5612 5612 5613 5614 5615 5616 5616 5617 5618 5619 5619 5619 5619 5619 5619 5619 5619 5619 5618 5618 5618 5617 5616 5615 5614 5613 5612 5610 5608 5606 5605 5603 5601 5599 5597 5595 5592 5590 5588 5587 5585 5583
5601 5602 5603 5603 5604 5604 5605 5605 5606 5607 5607 5608 5608 5608 5608 5608 5607 5607 5606 5606 5606 5605 5605 5604 5603 5601 5600 5598 5597 5595 5593 5591 5590 5588 5586 5583 5580 5578 5575 5573 5571 5570 5569
5592 5592 5593 5593 5593 5594 5594 5594 5595 5595 5595 5596 5595 5595 5595 5595 5595 5594 5594 5594 5593 5593 5592 5591 5590 5588 5587 5585 5583 5582 5580 5577 5575 5574 5571 5569 5566 5563 5561 5559 5556 5554 5554
5582 5582 5582 5583 5583 5583 5583 5583 5584 5584 5584 5584 5583 5583 5583 5583 5582 5582 5581 5581 5581 5580 5579 5578 5577 5575 5573 5572 5571 5569 5566 5564 5561 5559 5557 5554 5551 5547 5545 5544 5541 5540 5539
5572 5572 5572 5572 5572 5572 5573 5573 5573 5572 5572 5572 5571 5571 5571 5570 5570 5569 5569 5568 5568 5567 5566 5565 5564 5562 5560 5559 5557 5556 5553 5550 5547 5544 5542 5539 5536 5533 5531 5529 5527 5526 5525
5563 5563 5562 5562 5562 5562 5562 5562 5562 5561 5561 5560 5560 5559 5559 5558 5557 5557 5556 5556 5556 5555 5554 5552 5551 5549 5546 5544 5543 5541 5539 5536 5533 5530 5527 5525 5522 5519 5517 5515 5513 5512 5510
5553 5553 5553 5553 5553 5552 5552 5552 5551 5550 5550 5549 5549 5548 5547 5546 5545 5545 5544 5543 5543 5542 5540 5539 5537 5535 5533 5531 5528 5526 5524 5521 5519 5516 5514 5511 5509 5506 5504 5502 5499 5498 5496
5543 5543 5543 5543 5543 5542 5542 5541 5540 5540 5539 5538 5537 5536 5535 5534 5533 5532 5532 5531 5530 5529 5527 5526 5524 5522 5519 5517 5514 5512 5509 5507 5504 5502 5499 5498 5495 5493 5491 5489 5486 5484 5482
5534 5533 5533 5533 5532 5532 5531 5531 5530 5529 5528 5527 5526 5525 5524 5523 5522 5521 5519 5518 5517 5516 5514 5512 5510 5508 5505 5503 5500 5498 5495 5492 5490 5488 5486 5484 5482 5480 5478 5475 5473 5470 5468
5524 5524 5523 5523 5522 5522 5521 5520 5519 5518 5517 5516 5515 5514 5513 5512 5510 5509 5508 5506 5505 5503 5501 5499 5496 5494 5491 5489 5486 5484 5481 5479 5476 5474 5472 5471 5469 5467 5464 5462 5460 5457 5455
5514 5514 5513 5513 5512 5512 5511 5510 5509 5508 5506 5505 5504 5503 5502 5501 5499 5497 5495 5494 5492 5490 5487 5485 5483 5481 5478 5476 5473 5470 5468 5465 5463 5461 5459 5457 5455 5453 5451 5448 5446 5444 5442
5504 5504 5503 5503 5502 5502 5501 5500 5498 5497 5495 5494 5493 5492 5490 5489 5487 5485 5483 5481 5479 5477 5474 5472 5470 5468 5465 5462 5460 5457 5454 5452 5450 5448 5446 5444 5442 5440 5438 5436 5433 5431 5429
5495 5494 5494 5493 5492 5492 5491 5489 5488 5487 5485 5483 5481 5480 5479 5477 5475 5473 5471 5468 5466 5464 5461 5459 5456 5454 5451 5448 5446 5443 5441 5439 5437 5435 5433 5431 5429 5427 5425 5424 5422 5420 5418
5485 5484 5484 5483 5482 5481 5480 5479 5478 5476 5475 5472 5471 5469 5467 5465 5463 5461 5459 5456 5453 5451 5448 5446 5443 5441 5438 5435 5433 5430 5428 5426 5424 5422 5421 5419 5417 5416 5414 5412 5411 5409 5408
5476 5475 5474 5473 5472 5471 5470 5469 5467 5466 5464 5462 5460 5458 5456 5454 5452 5449 5446 5444 5441 5438 5436 5433 5431 5428 5426 5423 5420 5418 5416 5414 5412 5411 5409 5408 5406 5405 5404 5402 5400 5399 5398
5466 5466 5465 5464 5463 5462 5461 5459 5458 5456 5454 5452 5450 5448 5446 5443 5441 5438 5435 5432 5429 5427 5424 5421 5419 5416 5414 5411 5409 5406 5404 5402 5401 5400 5398 5397 5396 5395 5394 5392 5391 5390 5389
5458 5457 5456 5455 5454 5453 5451 5449 5448 5446 5444 5442 5440 5438 5436 5433 5430 5428 5425 5421 5418 5415 5413 5410 5407 5405 5402 5400 5398 5396 5394 5392 5391 5390 5388 5387 5386 5386 5385 5383 5382 5381 5380
5450 5449 5448 5447 5446 5444 5442 5440 5438 5437 5435 5433 5431 5428 5426 5423 5421 5417 5414 5411 5408 5405 5402 5399 5397 5394 5392 5390 5388 5386 5384 5382 5381 5380 5379 5378 5377 5377 5376 5375 5374 5372 5371
5442 5441 5440 5439 5438 5436 5434 5432 5430 5428 5426 5424 5422 5420 5417 5414 5411 5408 5404 5401 5398 5395 5392 5389 5387 5384 5382 5380 5378 5376 5375 5374 5372 5371 5370 5369 5369 5368 5367 5366 5365 5364 5364
5435 5434 5433 5431 5430 5428 5426 5424 5422 5420 5418 5416 5413 5411 5408 5404 5401 5398 5395 5391 5388 5385 5382 5379 5377 5375 5373 5371 5369 5368 5366 5365 5363 5362 5362 5361 5360 5359 5359 5358 5357 5357 5356
5427 5426 5425 5424 5422 5421 5419 5416 5414 5412 5409 5407 5404 5401 5398 5395 5392 5388 5385 5382 5378 5375 5373 5370 5368 5366 5364 5362 5361 5359 5358 5357 5355 5354 5354 5353 5352 5352 5351 5351 5350 5350 5349
5420 5419 5417 5416 5414 5413 5411 5408 5406 5404 5401 5399 5396 5393 5389 5386 5382 5379 5375 5372 5369 5366 5364 5362 5360 5358 5356 5355 5353 5352 5350 5349 5348 5347 5346 5346 5345 5345 5344 5344 5343 5343 5343